Voltar ao catálogo

STARLINK-36783

AtivoComunicaçõesVLEO
NORAD 67873·PAYLOAD·🇺🇸 United States

Lançado Feb 20, 2026 de Vandenberg Space Force Base

Loading…

Próximas Passagens (próximas 24 horas)

TLE

AtualizadoSource: CelesTrak SupGP

Época: Sep 14, 2026, 22:36 UTC

1 67873C 26034Z   26257.94215278  .00020931  00000+0  61834-3 0  2572
2 67873  53.1590  40.0199 0001125  66.7307 300.5855 15.34384317    13

Acompanhe STARLINK-36783 em tempo real com AllMySat

Download on the App Store